loading
|

THOR ABLESTAR DEB, 351

Orbit data source: Space-Track

THOR ABLESTAR DEB, 351 is space debris in LEO originally from a launch on Thu, 29 Jun 1961 UTC launched from the Air Force Eastern Test Range (AFETR). Debris objects in space refer to the collection of defunct objects orbiting the Earth. Examples of debris include non-operational satellites, rocket bodies, and fragments generated from explosions, collisions, or faulty payload assembly.

Loading next visibility...
Loading greatness...
THOR ABLESTAR DEB details
Identifier
351, 1961-015DR
Orbit
LEO
Last TLE update10 hours ago
Origin
Flag of USUSAF SSD (US)
ManufacturerUnknown
Mission statusUnknown
MissionUnknown
Bus & MotorUnknown
MassUnknown
Launch date (UTC)
1961-06-29 (63 years ago)
Launch vehicleUnknown
Launch site
Air Force Eastern Test Range (AFETR)
Object type
Payload
Rocket body
Debris
Radar Cross SectionSmall (<0.1 m²)

Expand to show TLE details & history

TLE from 10 hours ago
0 THOR ABLESTAR DEB
1   351U 61015DR  24258.89939033  .00020580  00000-0  36053-2 0  9991
2   351  66.7463  92.5491 0019554 109.7448 250.5781 14.67683859283491
Epoch: 2024-09-14T21:35Z
Definitive object data (Epoch: 2024-09-14T21:35:07.324Z)
Latitude-0.00002°
Longitude134.41809°
Altitude675.226 km
Speed7.517 km/s
True Right ascension06h 10m 11s
True Declination0° 00' 00"
Sunlit
Object was in daylight at TLE epoch
Predictive object data (real-time)
Latitude29.54535°
Longitude-60.8123°
Altitude660.472 km
Speed7.536 km/s
Apparent Right ascension15h 12m 43s
Apparent Declination-3° 49' 50"
Sunlit
Object is in daylight
Predictive observer data (real-time)
Local Sidereal Time00:42:38
Azimuth306.917° NW
Elevation-40.529°
Doppler factor1
Orbital elements
Apogee680.588 km
Perigee653.037 km
Semi-major axis7,044.95 km
Eccentricity0.0019554
Inclination66.7463°
RAAN92.5491°
Arg. of periapsis109.7448°
True anomaly250.36695°
Mean anomaly250.5781°
Eccentric anomaly250.47251°
Mean motion3.67051 °/min
BSTAR0.0036053
Period98.08 mins
No data available

THOR ABLESTAR DEB Visibility forecast

Observer location: 39.9160978°, -105.1181434

THOR ABLESTAR DEB is not visible in the next 10 days
Span
Click to sort rows by Start time (UTC) header in descending order
Start Az.
Max El. time (UTC)
Max El. Az.
Max El.
End time (UTC)
End Az.